Regional Weather Roundup
Issued by NWS

Home | Current Version | Previous Version | Text Only | Print | Product List | Glossary On
Versions: 1 2 3 4 5 6 7 8 9 10 11 12 13 14 15 16 17 18 19 20 21 22 23 24 25 26 27 28 29 30 31 32 33 34 35 36 37 38 39 40 41 42 43 44 45 46 47 48 49
000
ASUS42 KTBW 040817
RWRFL
FLORIDA REGIONAL WEATHER ROUNDUP
NATIONAL WEATHER SERVICE TAMPA BAY RUSKIN FL
400 AM EDT FRI SEP 04 2015

NOTE: "FAIR" INDICATES FEW OR NO CLOUDS BELOW 12,000 FEET WITH NO
SIGNIFICANT WEATHER AND/OR OBSTRUCTIONS TO VISIBILITY.


FLZ001>010-012>015-112-114-115-040900-
PANHANDLE FLORIDA

CITY           SKY/WX    TMP DP  RH WIND       PRES   REMARKS
PENSACOLA      CLEAR     76  73  91 W5        29.94S
MILTON NAS     CLEAR     72  71  97 W3        29.96  FOG
CRESTVIEW      CLEAR     70  69  97 E3        29.97R FOG
DUKE FIELD     FAIR      72  70  94 N2        29.94S
VALPARAISO     PTCLDY    75  72  90 NW6       29.95R
MARY ESTHER    CLEAR     74  71  91 N3        29.94R
PANAMA CITY    FAIR      73  71  93 NW3       29.94R
TYNDALL AFB    PTCLDY    75  74  96 CALM      29.94S
APALACHICOLA   PTCLDY    73  73 100 CALM      29.94S

STATION/POSITION SKY/WX   TEMP    WIND        PRES    WAVE   SWELL
                          AIR SEA DIR/SP/G            HT/PER HT/PER
                          (F)     (DEG/KT/KT) (MB)    (FT/S) (FT/S)
30.1N   87.6W              83 85  260/  4/  6 1013.4F   1/ 5   2/ 5
29.2N   88.2W              82 84  240/  4/  6 1014.2S   1/ 4
28.8N   86.0W              83 86  280/  6/  6 1014.2F   1/ 5   2/ 5
PANAMA CITY BEAC           80 85  350/  4/  5 1013.7F
CAPE SAN BLAS    NOT AVBL
TOWER C                    83     280/  6/  6 1013.8R
28.5N   84.5W              84 86  290/  6/  8 1013.7F   2/ 4   2/ 4

$$
FLZ011-016>038-118-127-128-134-139-239-040900-
NORTH FLORIDA

CITY           SKY/WX    TMP DP  RH WIND       PRES   REMARKS
MARIANNA       CLEAR     72  71  97 CALM      29.94S
TALLAHASSEE    PTCLDY    74  71  91 W3        29.94S
PERRY          CLOUDY    76  74  91 CALM      29.94S
CROSS CITY       N/A     79  76  90 CALM      29.93S
LAKE CITY      FAIR      77  75  94 NW5       29.93S
GAINESVILLE    CLOUDY    77  75  93 CALM      29.93S
MAYPORT NAS    MOCLDY    80  78  94 W3        29.91F
JACKSONVILLE   CLOUDY    77  77 100 CALM      29.91S
JAX NAS        MOCLDY    83  76  79 W5        29.92S
JAX CRAIG      MOCLDY    79  77  94 CALM      29.91F
JAX CECIL      CLEAR     77  77 100 CALM      29.92S
FERNANDINA BEA FAIR      81  79  94 CALM      29.90S
ST AUGUSTINE   CLOUDY    78  75  90 CALM      29.92S

STATION/POSITION SKY/WX   TEMP    WIND        PRES    WAVE   SWELL
                          AIR SEA DIR/SP/G            HT/PER HT/PER
                          (F)     (DEG/KT/KT) (MB)    (FT/S) (FT/S)
SHELL POINT                76     290/  2/  5   N/A
KEATON BEACH               78     360/  2/  3 1013.8S
CEDAR KEY                  82     360/  2/  3 1013.8R
FERNANDINA                 81 85  240/  4/  5 1012.4F
30.7N   81.3W                 85                N/A     1/10
MAYPORT                    81 85  200/  1/  3 1013.4F
31.4N   80.9W              83 84  270/  2/  4 1013.1S   1/ 8   2/ 8
ST AUGUSTINE               78 84  270/  3/  4 1013.7F

$$
FLZ040-043>046-052-053-057-058-063-144-040900-
INTERIOR CENTRAL FLORIDA

CITY           SKY/WX    TMP DP  RH WIND       PRES   REMARKS
OCALA          MOCLDY    75  72  88 CALM      29.93S
THE VILLAGES     N/A     75  75 100 CALM      29.83S
LEESBURG       CLEAR     78  75  90 NW3       29.93S
SANFORD        CLEAR     77  73  87 W3        29.91F
ORLANDO EXEC   CLEAR     80  76  87 NW5       29.92F
ORLANDO INTL   PTCLDY    78  74  87 SW3       29.93S
WINTER HAVEN   CLEAR     79  77  94 CALM      29.95S
LAKELAND       PTCLDY    77  75  94 CALM      29.95R
BARTOW         FAIR      75 N/A N/A CALM      29.95R
OKEECHOBEE       N/A     73  72  94 CALM      29.93R

$$
FLZ041-047-054-059-064-141-147-040900-
EAST CENTRAL FLORIDA

CITY           SKY/WX    TMP DP  RH WIND       PRES   REMARKS
DAYTONA BEACH  MOCLDY    78  75  90 W5        29.91F
CAPE CANAVERAL CLEAR     80  75  86 NW8       29.89F
PATRICK AFB    CLEAR     81  76  83 NW7       29.90F
MELBOURNE      CLEAR     77  76  96 SW3       29.91S
VERO BEACH     CLEAR     78  73  84 W5        29.92S
FT PIERCE      CLEAR     76  75  97 W3        29.91S
STUART           N/A     75  72  88 SW5       29.92F

STATION/POSITION SKY/WX   TEMP    WIND        PRES    WAVE   SWELL
                          AIR SEA DIR/SP/G            HT/PER HT/PER
                          (F)     (DEG/KT/KT) (MB)    (FT/S) (FT/S)
28.5N   80.2W              83 87  280/ 10/ 12 1012.8F
28.9N   78.5W              84 85  250/ 17     1011.9F
TRIDENT PIER               82 86  270/  4/  6 1013.4F
28.4N   80.5W                 85                N/A     1/13
27.5N   80.2W                 84                N/A     1/12

$$
FLZ050-056-061-142-242-148-248-149-249-151-251-155-255-
160-260-040900-
WEST CENTRAL FLORIDA

CITY           SKY/WX    TMP DP  RH WIND       PRES   REMARKS
CRYSTAL RIVER  FAIR      77  75  94 CALM      29.93R
INVERNESS      FAIR      75  75 100 CALM      29.93S FOG
BROOKSVILLE    PTCLDY    76  74  93 CALM      29.94S FOG
CLEARWATER     CLEAR     79  75  87 CALM      29.93S
TAMPA INTL     PTCLDY    81  76  84 CALM      29.94R
TAMPA EXEC     CLEAR     77  75  94 CALM      29.94S FOG
PLANT CITY     PTCLDY    79  77  94 CALM      29.96S
MACDILL AFB    CLEAR     81  80  96 NW3       29.93S
PETER O KNIGHT CLEAR     82  79  89 CALM      29.94R
ST PETERSBURG  CLEAR     84  75  74 NW6       29.92S
SARASOTA       CLEAR     77  74  90 CALM      29.92S
VENICE         FAIR      79  75  89 CALM      29.95R

STATION/POSITION SKY/WX   TEMP    WIND        PRES    WAVE   SWELL
                          AIR SEA DIR/SP/G            HT/PER HT/PER
                          (F)     (DEG/KT/KT) (MB)    (FT/S) (FT/S)
CEDAR KEY                  82     360/  2/  3 1013.8R
28.5N   84.5W              84 86  290/  6/  8 1013.7F   2/ 4   2/ 4
27.3N   84.2W                 87                N/A     1/ 7
CLEARWATER BEACH           85 87  300/  8/ 10 1013.6F
MIDDLE TAMPA BAY                  330/  5/  6 1013.9F
VENICE                     81 87   70/  4/  4 1013.4R

$$
FLZ066-069-070-075>078-162-262-165-265-040900-
SOUTHWEST FLORIDA AND KEYS

CITY           SKY/WX    TMP DP  RH WIND       PRES   REMARKS
PUNTA GORDA    CLEAR     79  78  97 CALM      29.95S
FT MYERS       PTCLDY    79  74  84 CALM      29.93S
SOUTHWEST INTL PTCLDY    80  74  81 CALM      29.93F
NAPLES         MOCLDY    80  74  81 CALM      29.93S
MARCO ISLAND   CLOUDY    77  73  88 CALM      29.93R
MARATHON       CLOUDY    84  76  76 CALM      29.92S
KEY WEST NAS   PTCLDY    83  75  77 CALM      29.93S
KEY WEST INTL  PTCLDY    85  75  72 S3        29.93S

STATION/POSITION SKY/WX   TEMP    WIND        PRES    WAVE   SWELL
                          AIR SEA DIR/SP/G            HT/PER HT/PER
                          (F)     (DEG/KT/KT) (MB)    (FT/S) (FT/S)
VENICE                     81 87   70/  4/  4 1013.4R
NAPLES                        86              1014.5F
26.0N   85.6W              85 87  180/  2/  4 1013.9F   1/ 6   2/ 6
DRY TORTUGAS                                    N/A
NW FL BAY                  84      40/  5/  7 1013.3
SAND KEY                   85     140/  2     1013.6R
LONG KEY                   85 89  190/  3/  4 1014.1S
MOLASSES REEF              84 87  190/  4/  6 1013.4S

$$
FLZ067-068-071>074-168-172>174-040900-
SOUTHEAST FLORIDA

CITY           SKY/WX    TMP DP  RH WIND       PRES   REMARKS
W PALM BEACH   PTCLDY    75  73  93 W3        29.93S
FT LAUDER-EXEC CLEAR     79  73  82 CALM      29.92F
FT LAUDERDALE  PTCLDY    80  72  76 CALM      29.91F
POMPANO BEACH  CLEAR     80  71  74 CALM      29.92F
PEMBROKE PINES CLEAR     80  71  74 CALM      29.93F
OPA LOCKA      CLEAR     80  74  81 CALM      29.92F
MIAMI          PTCLDY    80  75  84 CALM      29.92F
WEST KENDALL   CLEAR     73  73 100 CALM      29.92F
HOMESTEAD      CLEAR     78  74  85 CALM      29.92F

STATION/POSITION SKY/WX   TEMP    WIND        PRES    WAVE   SWELL
                          AIR SEA DIR/SP/G            HT/PER HT/PER
                          (F)     (DEG/KT/KT) (MB)    (FT/S) (FT/S)
PORT EVERGLADES            82     260/  2/  3 1013.1F
VIRGINIA KEY               84 88  250/  5/  6 1013.0F
LAKE WORTH                 81 87  220/  2/  4 1013.0F
FOWEY ROCKS                84 87  200/  8/  8 1013.1F
SETTLEMENT POINT           84     220/ 11/ 12 1013.7F

$$




USA.gov is the U.S. government's official web portal to all federal, state and local government web resources and services.